This demonstration page uses our WeatherBlox Daily Observations layout. Learn more.

Left ArrowRight Arrow

38.80484, -77.04692

Hourly Observations for September 13, 2020

Temp ( °F °C ) Dew Point ( °F °C ) Humidity (%) Winds ( mph kmh ) Pressure ( in mb ) Visibility ( mi km ) Precip ( " mm )
12:52 am 00:52 Mostly Clear 66 18.9 59 15 78 78 ENE 6 9 30.21 1023 10 16 N/A
1:52 am 01:52 Mostly Clear 64 17.8 58 14.4 81 81 NNE 6 9 30.20 1023 10 16 N/A
2:52 am 02:52 Clear 64 17.8 59 15 84 84 NE 7 11 30.19 1022 10 16 N/A
3:52 am 03:52 Clear 64 17.8 59 15 84 84 NNE 3 6 30.17 1022 10 16 N/A
4:52 am 04:52 Mostly Clear 64 17.8 59 15 84 84 NE 6 9 30.16 1021 10 16 N/A
5:52 am 05:52 Mostly Clear 63 17.2 58 14.4 84 84 NE 7 11 30.15 1021 10 16 N/A
6:52 am 06:52 Partly Cloudy 62 16.7 59 15 90 90 N 3 6 30.14 1021 10 16 N/A
7:52 am 07:52 Partly Cloudy 64 17.8 59 15 84 84 NE 5 7 30.14 1021 10 16 N/A
8:52 am 08:52 Mostly Sunny 67 19.4 61 16.1 81 81 NE 3 6 30.14 1021 10 16 N/A
9:52 am 09:52 Sunny 71 21.7 62 16.7 73 73 N N/A 30.14 1021 10 16 N/A
10:52 am 10:52 Partly Cloudy 75 23.9 62 16.7 64 64 N N/A 30.14 1021 10 16 N/A
11:52 am 11:52 Partly Cloudy 75 23.9 63 17.2 66 66 SE 5 7 30.11 1020 10 16 N/A
12:52 pm 12:52 Partly Cloudy 77 25 66 18.9 69 69 SSE 12 19 30.09 1019 10 16 N/A
1:52 pm 13:52 Partly Cloudy 78 25.6 66 18.9 67 67 S 9 15 30.07 1018 10 16 N/A
2:52 pm 14:52 Partly Cloudy 80 26.7 67 19.4 64 64 S 12 19 30.06 1018 10 16 N/A
3:52 pm 15:52 Mostly Cloudy 79 26.1 63 17.2 58 58 SSW 10 17 30.03 1017 10 16 N/A
4:52 pm 16:52 Partly Cloudy 80 26.7 66 18.9 62 62 S 7 11 30.03 1017 10 16 N/A
5:52 pm 17:52 Partly Cloudy 80 26.7 65 18.3 60 60 SSW 5 7 30.02 1017 10 16 N/A
6:52 pm 18:52 Partly Cloudy 78 25.6 66 18.9 67 67 S 6 9 30.03 1017 10 16 N/A
7:52 pm 19:52 Partly Cloudy 77 25 67 19.4 71 71 S 6 9 30.03 1017 10 16 N/A
8:52 pm 20:52 Partly Cloudy 76 24.4 69 20.6 79 79 S 6 9 30.05 1018 10 16 N/A
9:52 pm 21:52 Mostly Cloudy 75 23.9 69 20.6 82 82 S 5 7 30.05 1018 10 16 N/A
10:52 pm 22:52 Mostly Cloudy 75 23.9 68 20 79 79 SSW 5 7 30.06 1018 10 16 N/A
11:52 pm 23:52 Mostly Cloudy 75 23.9 69 20.6 82 82 SW 3 6 30.06 1018 10 16 N/A

Powered by AerisWeather